DELTA 1 DEB, 7091

Orbit data source: Space-Track

DELTA 1 DEB, 7091 is space debris in LEO originally from a launch on Tue, 06 Nov 1973 UTC launched from the Air Force Western Test Range (AFWTR). Debris objects in space refer to the collection of defunct objects orbiting the Earth. Examples of debris include non-operational satellites, rocket bodies, and fragments generated from explosions, collisions, or faulty payload assembly.

Loading next visibility...
Identifier
7091, 1973-086CK
Orbit
LEO
Country
Flag of USUS
Related business
Manufacturer
Unknown
Mission
Spacecraft
Bus & Motor
Unknown
Mass
Unknown
Launch date (UTC)
1973-11-06 (53 years ago)
Launch vehicle
Unknown
Launch site
Air Force Western Test Range (AFWTR)
Object type
Payload
Rocket body
Debris
Shape & HBR
Unknown shape, 0.6 m
Radar Cross Section
Medium (>0.1 m² and <1 m²)

Expand to show TLE details & history
Last TLE update: 11 hours ago

TLE from 11 hours ago
0 DELTA 1 DEB
1 07091U 73086CK  26255.22562782 -.00000014  00000-0  30057-3 0  9999
2 07091 102.1580   4.6653 0276330 355.8292  32.0089 11.96367158306531
Epoch: 2026-09-12T05:24Z
TLE epoch observation values (Epoch: 2026-09-12T05:24:54.243Z)
Latitude
28.88565°
Longitude
-74.591°
Altitude
1,512.933 km
Speed
7.193 km/s
True Right ascension
23h 51m 29s
True Declination
28° 45' 16"
Sunlit
Object was in full shadow at epoch
Visualization orbit readout
Latitude
Unknown
Longitude
Unknown
Altitude
Unknown
Speed
Unknown
Apparent Right ascension
Unknown
Apparent Declination
Unknown
Sunlit
N/A
Visualization observer readout
Local Sidereal Time
09:20:35
Azimuth
Unknown
Elevation
Unknown
Doppler factor
Unknown
Orbital elements
Apogee altitude
1,917.885 km
Perigee altitude
1,471.726 km
Semi-major axis
8,072.942 km
Eccentricity
0.02763
Inclination
102.158°
RAAN
4.6653°
Arg. of periapsis
355.8292°
True anomaly
33.73763°
Mean anomaly
32.0089°
Eccentric anomaly
32.86814°
Mean motion
2.99223 °/min
Orbital period
120.31 mins
BSTAR
0.00030057
Loading maneuver chart data...
Computing Atmospheric mass density...
Loading historical data...
Loading historical data...
Loading historical data...
Loading historical data...
Loading historical data...
Loading historical data...
Loading historical data...

Documentation

Showing up to 5 results
|